Weather History for Frenchville, ME

Change the Weather History Date:

Saturday, February 2, 2013

  Actual Average Record
Temperature  
Mean Temperature -3 °F 9 °F  
Max Temperature 4 °F 18 °F 32 °F (1998)
Min Temperature -10 °F 1 °F -10 °F (2013)
Degree Days  
Heating Degree Days 68    
Month to date heating degree days 128  
Since 1 July heating degree days 5235  
Cooling Degree Days 0    
Month to date cooling degree days 0  
Year to date cooling degree days 0  
Moisture  
Dew Point -12 °F    
Average Humidity 68    
Maximum Humidity 79    
Minimum Humidity 52    
Precipitation  
Precipitation 0.00 in 0.02 in 0.56 in (2003)
Month to date precipitation T 0.04  
Year to date precipitation 0.98 1.80  
Sea Level Pressure  
Sea Level Pressure 30.02 in    
Wind  
Wind Speed 5 mph (NW)    
Max Wind Speed 14 mph    
Max Gust Speed 17 mph    
Visibility 10 miles    
Events      
T = Trace of Precipitation, MM = Missing Value Source: NWS Daily Summary

Daily Weather History Graph

Daily Weather History Graph

Search for Another Location

Airport:

Trip Planner

Search our weather history database for the weather conditions in past years. The results will help you decide how hot, cold, wet, or windy it might be!

Date:

Astronomy

Feb. 02, 2013 Rise Set
Actual Time 6:57 AM EST 4:37 PM EST
Civil Twilight 6:24 AM EST 5:09 PM EST
Nautical Twilight 5:48 AM EST 5:46 PM EST
Astronomical Twilight 5:12 AM EST 6:22 PM EST
Moon No Moon Rise 9:34 AM EST (2/2)
Length of Visible Light 10h 45m
Length of Day
9h 39m
Waning Gibbous, 60% of the Moon is Illuminated
Feb 2
Waning Gibbous
Feb 3
Last Quarter
Feb 10
New
Feb 17
First Quarter
Feb 25
Full

Hourly Weather History & Observations

Time (EST) Temp. Windchill Dew Point Humidity Pressure Visibility Wind Dir Wind Speed Gust Speed Precip Events Conditions
12:30 AM -4.0 °F -22.1 °F -11.2 °F 71% 29.86 in 10.0 mi NNW 11.5 mph - N/A   Mostly Cloudy
12:53 AM -4.0 °F -23.0 °F -11.0 °F 72% 29.93 in 10.0 mi NNW 12.7 mph - N/A   Overcast
1:10 AM -5.8 °F -24.4 °F -11.2 °F 77% 29.86 in 10.0 mi NW 11.5 mph - N/A   Scattered Clouds
1:53 AM -6.0 °F -23.6 °F -11.9 °F 75% 29.96 in 10.0 mi NW 10.4 mph - N/A   Clear
2:36 AM -7.6 °F -25.7 °F -13.0 °F 77% 29.89 in 10.0 mi NW 10.4 mph - N/A   Mostly Cloudy
2:53 AM -7.1 °F -28.4 °F -13.0 °F 75% 29.97 in 10.0 mi NNW 15.0 mph - N/A   Mostly Cloudy
3:53 AM -8.0 °F -26.1 °F -14.1 °F 75% 30.00 in 10.0 mi NW 10.4 mph - N/A   Overcast
4:14 AM -7.6 °F -27.5 °F -14.8 °F 71% 29.93 in 10.0 mi NNW 12.7 mph - N/A   Scattered Clouds
4:53 AM -9.0 °F -26.4 °F -14.1 °F 79% 30.02 in 10.0 mi NW 9.2 mph - N/A   Clear
5:53 AM -9.0 °F -22.3 °F -15.0 °F 75% 30.04 in 10.0 mi NW 5.8 mph - N/A   Clear
6:24 AM -9.4 °F -26.8 °F -14.8 °F 77% 29.97 in 10.0 mi NNW 9.2 mph - N/A   Mostly Cloudy
6:53 AM -9.4 °F -25.6 °F -14.8 °F 77% 29.97 in 10.0 mi NNW 8.1 mph - N/A   Overcast
7:53 AM -9.0 °F -26.4 °F -16.1 °F 71% 30.08 in 10.0 mi NNW 9.2 mph - N/A   Overcast
8:53 AM -8.0 °F -22.5 °F -16.1 °F 68% 30.09 in 7.0 mi North 6.9 mph - N/A   Overcast
9:53 AM -6.0 °F -16.9 °F -15.0 °F 65% 30.09 in 9.0 mi NW 4.6 mph - N/A   Mostly Cloudy
10:01 AM -5.8 °F -18.4 °F -14.8 °F 65% 30.01 in 10.0 mi North 5.8 mph - N/A   Scattered Clouds
10:53 AM -2.9 °F -15.0 °F -11.9 °F 65% 30.08 in 10.0 mi Variable 5.8 mph - N/A   Clear
11:53 AM -2.0 °F -13.9 °F -11.9 °F 63% 30.06 in 10.0 mi West 5.8 mph - N/A   Mostly Cloudy
12:53 PM -0.0 °F - -9.9 °F 63% 30.05 in 10.0 mi Calm Calm - N/A   Overcast
1:53 PM 1.9 °F - -9.0 °F 60% 30.03 in 10.0 mi Calm Calm - N/A   Mostly Cloudy
2:40 PM 1.4 °F - -7.6 °F 66% 29.96 in 10.0 mi Calm Calm - N/A   Mostly Cloudy
2:53 PM 3.0 °F -4.4 °F -8.0 °F 60% 30.04 in 10.0 mi NNW 3.5 mph - N/A   Partly Cloudy
3:53 PM 3.0 °F - -8.0 °F 60% 30.05 in 10.0 mi Calm Calm - N/A   Scattered Clouds
4:53 PM 3.0 °F - -9.0 °F 57% 30.06 in 10.0 mi Calm Calm - N/A   Clear
5:53 PM 3.0 °F -6.4 °F -11.0 °F 52% 30.06 in 10.0 mi SW 4.6 mph - N/A   Clear
6:53 PM 1.9 °F - -9.0 °F 60% 30.08 in 10.0 mi Calm Calm - N/A   Clear
7:53 PM 1.0 °F -6.7 °F -9.0 °F 63% 30.08 in 10.0 mi SE 3.5 mph - N/A   Clear
8:53 PM -0.9 °F -11.0 °F -9.0 °F 69% 30.10 in 10.0 mi East 4.6 mph - N/A   Partly Cloudy
9:53 PM 1.0 °F -6.7 °F -9.0 °F 63% 30.09 in 10.0 mi SSE 3.5 mph - N/A   Scattered Clouds
10:53 PM -0.9 °F - -9.0 °F 69% 30.09 in 10.0 mi Calm Calm - N/A   Overcast
11:53 PM -2.0 °F - -9.0 °F 72% 30.09 in 10.0 mi Calm Calm - N/A   Overcast